Temperature
11 10 10 10 9 9 9 9 9 9 9 9 9 9 9 9 8 8 8 8 8 8 7 7 7 6 6 6 6 6 6 6 6 6 6 6 6 6 6 6 6 7 7
11 10 10 10 9 9 9 9 9 9 9 9 9 9 9 9 9 8 8 8 8 8 7 7 6 6 6 6 6 6 6 6 6 5 5 5 5 5 5 5 6 6 6
10 10 10 10 9 9 9 9 9 9 9 9 9 9 9 9 9 8 8 8 8 8 7 7 7 6 6 6 6 5 5 5 5 5 5 5 5 5 5 5 5 5 5
10 10 10 10 9 9 9 9 9 9 9 9 9 9 9 9 8 8 8 8 8 7 7 7 7 7 6 6 5 5 5 5 5 4 4 4 4 4 4 4 4 4 4
11 10 10 9 9 9 9 9 9 9 9 9 9 9 9 9 8 8 8 8 7 7 7 7 7 7 7 6 6 5 5 4 4 4 4 4 4 4 4 4 4 4 4
11 10 10 9 9 9 9 9 9 9 9 9 9 9 9 8 8 8 8 8 7 7 7 7 7 7 6 6 6 5 5 4 4 4 4 3 3 3 3 3 3 3 3
11 10 10 10 9 9 9 9 9 9 9 8 8 9 9 8 8 8 8 7 7 7 7 7 6 6 6 6 6 6 5 4 4 3 3 3 3 3 3 3 3 3 3
11 10 10 10 9 9 9 9 9 9 9 8 8 8 8 8 8 8 8 7 7 7 7 6 6 6 6 6 6 5 5 5 4 3 3 3 2 2 2 2 2 2 2
11 10 10 10 10 9 9 9 9 9 9 9 8 8 8 8 8 8 7 7 7 7 6 6 6 6 6 5 5 5 5 5 4 3 2 2 2 2 2 2 2 2 2
11 11 10 10 10 9 9 9 9 9 9 9 8 8 8 8 8 8 7 7 7 6 6 6 6 6 5 5 5 5 4 4 4 3 2 2 2 1 1 1 1 1 1
11 11 10 10 10 10 9 9 9 9 9 9 8 8 8 8 8 7 7 7 7 6 6 6 6 5 5 5 4 4 4 4 3 3 2 2 2 1 1 1 1 1 1
11 11 10 10 10 10 9 9 9 9 9 9 8 8 8 8 8 7 7 7 7 7 6 6 5 5 5 4 4 4 3 3 3 3 2 2 2 1 1 0 0 0 0
11 11 10 10 10 10 10 9 9 9 9 9 8 8 8 8 7 7 7 6 6 6 6 6 5 5 4 4 4 3 3 3 2 2 2 2 1 1 0 -0 -0 -0 -1
12 12 11 10 10 10 10 9 9 9 9 8 8 8 8 8 7 7 6 6 5 5 6 6 5 5 4 3 3 3 2 2 2 2 1 1 1 0 -0 -1 -1 -1 -1
12 11 11 10 10 10 10 9 9 9 9 8 8 8 8 7 7 7 6 6 5 4 5 5 5 4 3 3 2 2 2 1 1 1 1 0 0 -0 -1 -1 -1 -1 -2
11 11 11 10 10 10 10 9 9 9 8 8 8 8 8 7 7 6 6 5 5 4 4 4 4 3 3 2 2 1 1 1 1 0 0 -0 -1 -1 -1 -2 -2 -2 -2
11 11 10 10 10 9 9 9 9 9 8 8 8 8 7 7 6 6 6 5 5 4 3 3 3 3 2 2 1 1 1 0 0 -0 -1 -1 -1 -2 -2 -2 -2 -3 -3
10 10 10 10 9 9 9 9 9 8 8 8 8 7 7 7 6 6 5 5 4 4 3 3 3 2 2 1 1 1 0 -0 -1 -1 -1 -1 -2 -2 -2 -3 -3 -3 -3
10 10 9 9 9 9 9 9 8 8 8 8 7 7 7 6 6 5 5 4 4 3 2 2 2 2 1 1 0 0 -0 -1 -1 -1 -2 -2 -2 -3 -3 -3 -4 -4 -4
9 9 9 9 9 9 8 8 8 8 8 7 7 6 6 6 5 4 4 4 3 2 2 1 1 1 0 0 -1 -1 -1 -1 -2 -2 -2 -3 -3 -3 -4 -4 -4 -4 -4
9 9 9 9 9 8 8 8 8 7 7 7 6 6 5 5 4 4 3 3 2 2 1 1 0 -0 -0 -1 -2 -2 -3 -3 -3 -3 -3 -3 -4 -4 -4 -4 -4 -4 -4
9 9 9 8 8 8 8 7 7 7 7 6 6 5 5 4 4 3 3 2 2 1 0 -0 -1 -1 -1 -2 -2 -3 -4 -4 -4 -4 -5 -4 -4 -4 -5 -5 -5 -5 -5
8 8 8 8 8 7 7 7 7 6 6 6 5 5 4 4 3 3 2 1 1 0 -0 -1 -1 -2 -2 -3 -3 -4 -4 -5 -5 -5 -6 -5 -5 -5 -5 -5 -5 -6 -6
8 8 8 8 7 7 7 6 6 6 5 5 5 4 4 3 3 2 1 1 0 -0 -1 -2 -2 -3 -3 -4 -4 -5 -5 -6 -6 -6 -6 -6 -6 -6 -6 -6 -6 -6 -6
8 7 7 7 7 6 6 6 5 5 5 4 4 3 3 2 2 1 0 -0 -1 -1 -2 -2 -3 -3 -4 -5 -5 -5 -6 -6 -6 -7 -7 -7 -7 -7 -7 -6 -6 -7 -7
7 7 6 6 6 6 5 5 5 4 4 4 3 3 2 1 1 0 -1 -1 -1 -2 -3 -3 -3 -4 -5 -5 -6 -6 -6 -7 -7 -7 -7 -8 -8 -8 -8 -7 -7 -7 -7
Wind_Speed
7 7 7 6 5 5 4 3 2 2 2 3 3 2 2 2 2 2 3 4 4 4 5 6 7 8 9 9 9 10 10 10 10 10 11 11 11 11 12 12 12 13 13
11 8 6 6 6 6 5 4 3 2 2 2 2 3 3 2 2 2 2 4 5 5 5 6 7 8 8 9 9 9 10 10 10 10 11 11 11 12 12 12 12 13 13
14 11 6 6 7 7 6 4 3 3 2 2 2 3 3 2 2 2 3 4 5 6 6 6 7 7 8 8 9 9 9 9 10 10 10 11 11 11 12 12 12 13 13
16 12 7 6 9 8 6 4 2 2 1 1 1 2 2 2 2 2 4 4 5 6 6 7 7 7 7 8 8 8 8 9 9 10 10 11 11 12 12 12 13 13 13
18 13 9 9 10 7 5 4 2 2 2 1 1 2 2 2 2 3 4 4 5 5 6 6 7 7 8 8 8 8 9 9 9 10 10 11 11 12 12 13 13 14 14
18 15 10 10 10 6 4 4 3 2 2 2 2 2 3 2 2 2 3 4 4 4 5 5 6 6 7 7 8 8 9 9 9 10 10 11 11 12 13 13 14 14 15
18 15 9 8 8 7 7 7 4 3 2 2 2 2 3 3 3 2 2 3 3 3 4 4 4 5 6 7 8 8 9 9 9 10 10 11 12 12 13 14 14 15 15
18 16 11 8 8 7 7 7 5 4 2 2 3 2 1 2 2 2 2 1 2 2 3 2 3 3 4 5 7 7 8 9 10 11 11 12 12 13 14 15 15 16 16
19 17 15 11 9 9 8 8 8 7 4 2 2 4 3 3 2 2 2 1 2 1 2 2 2 2 2 3 5 6 8 9 11 12 12 13 13 14 15 15 16 16 17
17 17 16 13 10 9 9 9 8 6 6 4 2 1 2 3 3 1 2 2 2 1 2 1 1 1 1 2 4 6 8 9 11 12 13 14 15 15 16 16 17 17 18
14 16 15 13 11 9 10 10 8 7 5 5 5 3 2 2 2 3 3 3 3 2 2 2 2 2 2 2 4 6 8 10 11 12 13 14 15 16 17 17 18 18 19
10 13 13 12 11 10 10 10 10 10 7 6 5 4 4 4 4 4 3 3 3 3 2 2 2 4 3 3 4 7 9 10 12 13 14 15 16 16 17 18 19 19 20
9 13 12 12 11 10 10 9 9 9 9 8 7 5 4 4 4 4 3 2 2 3 3 2 3 5 5 4 5 8 9 11 12 14 15 16 16 17 18 19 19 20 20
13 14 14 13 12 12 11 10 8 8 8 8 8 6 4 4 4 4 4 4 1 2 3 4 2 5 6 6 8 9 9 11 13 15 16 16 17 17 18 19 20 20 21
10 13 14 13 12 12 11 11 8 8 8 8 8 7 5 4 4 4 4 4 4 3 4 4 3 3 6 7 9 9 10 12 15 16 16 17 18 18 19 20 20 21 21
11 13 13 12 12 11 11 11 9 8 9 7 6 7 5 4 4 4 4 4 4 5 4 4 5 4 5 7 10 10 12 14 15 16 18 18 19 19 20 20 21 22 22
12 14 14 13 13 12 12 11 9 10 10 8 7 8 7 5 5 4 4 4 4 4 5 4 3 3 3 5 9 11 13 13 14 16 18 19 19 20 20 21 22 22 23
13 13 13 13 13 12 12 12 12 11 11 10 9 8 7 5 6 4 4 5 4 5 5 6 4 3 5 5 6 7 10 11 13 16 18 19 20 20 21 21 22 23 23
12 11 12 13 12 12 12 12 11 11 11 10 9 9 8 7 6 4 5 5 4 4 5 5 5 3 4 4 5 5 6 8 12 14 17 18 19 20 21 22 22 23 24
12 12 11 11 11 11 11 10 10 10 9 8 8 8 8 8 8 7 6 6 5 4 4 5 5 5 5 5 4 5 6 5 6 10 14 16 18 20 20 22 22 23 23
11 10 10 9 9 9 10 10 10 9 9 7 6 6 6 8 9 7 5 5 5 4 4 4 5 4 4 4 5 4 6 6 6 5 6 7 10 11 15 19 21 22 23
9 9 10 10 10 8 12 15 12 9 8 8 6 5 5 6 7 9 9 8 7 5 5 4 5 6 7 6 5 5 5 6 5 3 3 6 5 8 10 14 19 22 22
9 9 9 9 9 9 13 15 15 9 8 7 7 5 4 4 6 4 7 8 8 10 9 5 6 7 6 6 5 6 6 7 7 5 4 7 5 8 10 15 21 22 21
9 8 8 9 8 8 12 13 13 8 6 6 6 6 5 4 4 4 4 4 5 6 8 6 6 7 7 7 7 7 7 7 7 5 5 6 5 6 7 12 19 19 18
8 7 7 8 8 7 10 11 12 7 5 4 4 4 4 4 6 6 4 5 5 6 8 11 12 13 14 14 11 5 4 6 8 5 4 4 4 5 5 6 12 15 18
8 8 7 6 7 6 9 10 11 6 5 3 2 2 4 4 5 5 3 4 6 6 4 5 7 9 9 10 12 6 4 6 7 5 3 3 3 4 5 4 4 9 13
Wind_Direction
166 168 171 173 175 170 159 145 131 92 67 48 37 36 33 26 23 19 4 13 20 23 25 26 27 28 31 32 31 27 24 21 18 14 10 8 5 1 357 353 351 350 346
174 172 172 177 186 187 180 169 158 132 98 64 39 44 45 36 31 33 32 36 39 42 37 33 33 31 28 28 27 25 22 18 15 12 8 4 1 357 354 351 348 346 343
180 177 174 182 193 189 176 157 139 120 101 80 53 36 34 28 48 57 61 57 52 48 45 40 36 28 25 22 20 19 17 12 11 8 4 0 357 354 351 348 346 344 342
184 179 178 188 191 181 169 151 136 123 108 91 60 20 17 26 45 64 74 71 68 59 52 48 37 29 22 16 12 11 11 9 7 2 359 357 354 351 349 347 346 344 341
186 182 185 189 181 170 167 158 137 142 141 122 93 40 18 23 29 70 76 76 80 75 63 48 39 35 23 14 10 7 5 3 359 357 354 352 350 348 346 344 343 342 339
189 185 186 183 174 164 163 157 144 125 125 129 92 51 24 20 41 60 75 80 81 80 72 58 47 35 23 16 9 2 358 354 353 352 350 348 345 343 342 341 340 338 336
189 186 185 178 175 177 176 164 145 141 125 123 103 41 15 30 46 35 57 75 67 72 70 60 49 36 24 16 9 1 353 349 348 346 345 343 340 338 336 336 335 334 332
190 190 185 183 180 175 169 166 154 142 134 136 137 117 12 345 4 21 25 57 43 48 47 38 38 27 20 14 1 357 350 344 341 339 337 336 334 332 332 332 331 330 329
192 190 189 184 181 177 181 179 171 159 161 152 141 148 159 220 281 327 348 4 351 358 355 357 5 358 358 2 356 346 346 340 336 334 332 331 329 327 327 327 326 326 326
192 191 188 185 183 182 181 182 175 167 154 162 149 110 139 151 158 277 312 321 327 307 306 320 320 318 335 357 349 339 337 334 331 329 328 327 324 323 323 323 322 322 321
192 191 189 186 185 186 183 177 173 173 168 164 163 154 134 97 127 167 252 299 319 298 283 279 263 262 279 318 339 331 327 325 324 323 324 323 321 320 319 319 319 317 316
190 191 188 187 186 185 184 182 179 177 177 168 166 163 161 163 179 175 207 243 269 288 297 283 251 244 251 272 311 321 319 319 319 319 320 319 317 316 315 315 315 314 312
191 193 188 188 187 186 182 175 176 179 177 174 177 180 177 174 160 160 168 204 246 287 303 288 253 246 252 264 294 309 311 314 314 315 316 315 313 312 312 311 311 310 309
193 188 187 188 186 181 177 174 175 179 177 179 181 175 177 181 169 167 166 164 217 286 283 268 279 248 250 264 283 297 298 305 309 311 311 310 309 308 308 308 308 308 307
183 181 184 183 181 179 176 173 179 177 174 180 180 179 179 184 178 177 171 170 173 229 266 258 258 257 251 269 281 285 287 296 304 307 307 305 305 305 305 305 305 305 304
175 176 180 180 179 177 176 175 175 173 173 177 175 176 183 181 179 178 180 181 182 190 238 251 242 249 265 276 284 287 286 294 301 302 303 302 301 302 303 303 303 303 302
175 179 180 178 178 179 177 177 177 172 174 174 174 181 190 180 183 186 181 184 193 186 231 266 252 256 259 269 283 287 288 286 287 294 299 300 300 301 301 301 302 302 301
178 179 176 177 179 179 178 178 177 177 178 181 183 183 192 183 190 189 189 198 203 200 211 255 270 263 257 262 267 277 282 282 280 289 294 296 298 300 300 301 302 302 301
173 173 174 178 179 178 179 180 178 179 182 183 182 186 188 181 198 200 201 207 210 212 211 235 264 260 266 268 277 276 274 278 282 286 291 293 295 298 301 303 303 303 303
171 174 177 178 176 174 175 174 172 174 176 178 180 184 185 190 199 199 206 212 209 214 218 234 257 264 263 267 263 274 285 270 277 285 285 287 292 298 300 302 304 304 303
170 170 168 168 167 169 174 169 169 169 169 172 178 186 191 198 204 202 206 206 199 212 224 239 256 269 269 272 266 261 277 284 275 264 271 278 287 288 291 295 299 300 300
161 161 165 166 168 175 176 175 169 167 168 172 180 187 195 204 217 225 234 230 216 216 227 235 255 263 270 263 264 267 277 292 291 256 255 275 271 277 281 283 291 297 300
156 159 162 163 169 172 173 175 174 165 167 175 178 180 192 208 218 222 246 254 252 252 251 245 248 256 266 263 267 273 267 267 272 269 267 280 267 274 278 285 295 300 301
156 158 160 163 162 170 172 172 169 157 159 171 177 183 193 210 216 218 219 239 251 257 262 257 242 251 253 256 250 261 270 275 268 261 250 275 275 270 280 283 292 296 302
149 150 156 156 156 159 166 165 157 145 153 166 172 178 189 211 241 248 228 240 259 266 270 272 274 277 283 287 288 285 282 287 292 280 230 248 275 284 279 276 283 294 302
141 138 135 144 149 150 157 159 153 145 153 160 164 187 210 228 250 260 233 229 258 264 262 279 284 290 292 295 297 288 267 279 289 290 242 243 276 302 299 272 274 285 294
Height
1535 1537 1538 1540 1542 1543 1544 1545 1546 1547 1547 1548 1548 1548 1548 1548 1547 1547 1547 1546 1546 1545 1545 1544 1544 1543 1542 1541 1540 1539 1538 1537 1536 1535 1534 1533 1532 1530 1529 1528 1528 1527 1526
1533 1535 1537 1539 1540 1542 1543 1545 1546 1546 1547 1547 1547 1547 1547 1547 1547 1546 1546 1545 1545 1544 1544 1543 1543 1542 1541 1541 1539 1538 1537 1536 1535 1533 1532 1531 1530 1528 1527 1526 1525 1524 1523
1531 1534 1536 1538 1539 1541 1542 1544 1545 1545 1546 1546 1546 1546 1546 1546 1545 1545 1544 1544 1544 1543 1543 1542 1542 1541 1540 1539 1538 1537 1536 1535 1533 1532 1531 1529 1528 1527 1525 1524 1523 1522 1521
1529 1531 1534 1536 1538 1540 1541 1542 1543 1544 1545 1545 1545 1545 1545 1545 1544 1544 1543 1543 1543 1542 1542 1541 1540 1540 1539 1538 1537 1536 1535 1533 1532 1531 1529 1528 1526 1525 1524 1522 1521 1519 1518
1526 1529 1531 1534 1536 1538 1539 1541 1542 1543 1544 1544 1544 1544 1543 1543 1543 1543 1543 1542 1542 1541 1541 1540 1539 1538 1537 1536 1535 1534 1533 1532 1530 1529 1527 1526 1524 1523 1522 1520 1519 1517 1516
1523 1526 1529 1531 1533 1535 1537 1539 1540 1541 1542 1542 1542 1542 1542 1542 1541 1541 1541 1541 1541 1540 1540 1539 1538 1537 1536 1535 1534 1533 1531 1530 1529 1527 1526 1524 1523 1521 1520 1518 1517 1515 1513
1519 1522 1525 1528 1530 1533 1535 1536 1538 1539 1540 1541 1541 1541 1540 1540 1540 1540 1540 1540 1539 1539 1538 1537 1536 1535 1534 1533 1532 1530 1529 1528 1527 1525 1524 1522 1520 1519 1517 1516 1514 1512 1510
1515 1518 1521 1524 1527 1530 1532 1533 1535 1537 1538 1539 1539 1539 1539 1539 1538 1538 1538 1538 1538 1537 1537 1536 1535 1533 1532 1531 1530 1528 1527 1526 1524 1523 1521 1520 1518 1516 1515 1513 1511 1509 1507
1510 1514 1517 1521 1523 1526 1528 1530 1532 1534 1535 1536 1537 1538 1537 1537 1537 1537 1536 1536 1536 1535 1535 1534 1533 1531 1530 1529 1527 1526 1524 1523 1521 1520 1518 1516 1515 1513 1511 1509 1507 1505 1503
1505 1509 1513 1516 1519 1522 1524 1527 1529 1531 1532 1533 1534 1535 1536 1535 1535 1535 1535 1534 1534 1533 1532 1531 1530 1529 1528 1526 1525 1523 1522 1520 1518 1516 1514 1513 1511 1509 1507 1505 1503 1501 1498
1500 1504 1508 1512 1515 1518 1520 1523 1525 1527 1529 1530 1531 1531 1532 1532 1532 1532 1532 1532 1531 1531 1530 1529 1528 1526 1525 1524 1522 1520 1519 1516 1514 1512 1510 1508 1506 1504 1503 1501 1498 1496 1494
1494 1499 1503 1506 1510 1513 1516 1519 1521 1523 1525 1526 1527 1528 1529 1529 1529 1529 1529 1528 1528 1527 1526 1525 1524 1523 1522 1520 1519 1517 1515 1513 1510 1508 1506 1503 1501 1499 1497 1495 1493 1491 1488
1488 1492 1497 1501 1505 1508 1512 1514 1517 1519 1521 1522 1523 1524 1525 1525 1526 1526 1525 1524 1524 1523 1522 1522 1521 1519 1518 1516 1515 1513 1511 1508 1506 1503 1501 1499 1496 1494 1492 1489 1487 1485 1482
1482 1487 1492 1496 1500 1504 1507 1509 1512 1514 1516 1518 1519 1520 1521 1521 1522 1522 1522 1522 1520 1519 1518 1517 1516 1515 1514 1512 1510 1508 1506 1504 1501 1498 1496 1493 1491 1488 1486 1483 1481 1478 1476
1478 1482 1487 1491 1495 1498 1502 1504 1507 1509 1511 1513 1515 1516 1517 1518 1518 1518 1518 1518 1517 1514 1512 1512 1512 1511 1510 1508 1505 1503 1501 1498 1496 1493 1490 1488 1485 1482 1480 1477 1474 1472 1469
1473 1477 1481 1486 1490 1493 1496 1499 1502 1504 1507 1509 1510 1512 1513 1513 1514 1514 1514 1513 1513 1511 1508 1507 1507 1506 1505 1503 1501 1498 1495 1493 1490 1487 1485 1482 1479 1476 1473 1470 1468 1465 1463
1468 1472 1476 1480 1484 1488 1491 1494 1497 1499 1502 1504 1505 1507 1508 1509 1509 1509 1509 1509 1508 1507 1504 1503 1502 1501 1499 1498 1495 1493 1490 1487 1484 1482 1478 1476 1473 1470 1467 1464 1461 1458 1456
1463 1467 1472 1475 1479 1483 1486 1489 1491 1494 1497 1499 1501 1502 1503 1504 1504 1505 1505 1504 1504 1502 1500 1497 1496 1495 1494 1492 1489 1486 1484 1481 1478 1475 1472 1469 1466 1463 1460 1457 1454 1451 1448
1458 1463 1467 1470 1474 1478 1481 1484 1487 1490 1492 1494 1496 1497 1499 1499 1500 1500 1500 1499 1499 1497 1495 1492 1490 1489 1487 1485 1482 1480 1477 1474 1472 1469 1465 1463 1460 1457 1453 1450 1447 1444 1441
1454 1458 1462 1466 1469 1473 1476 1479 1482 1485 1487 1489 1491 1492 1494 1494 1495 1495 1495 1494 1493 1491 1490 1487 1485 1483 1481 1479 1476 1472 1469 1467 1464 1462 1459 1456 1453 1450 1447 1444 1440 1436 1433
1450 1454 1458 1462 1465 1468 1471 1474 1477 1480 1482 1484 1486 1487 1489 1489 1490 1490 1489 1489 1487 1486 1484 1481 1479 1476 1474 1472 1469 1466 1462 1458 1456 1454 1451 1449 1446 1443 1440 1436 1433 1429 1425
1446 1450 1454 1457 1461 1463 1467 1470 1473 1475 1477 1479 1481 1483 1484 1484 1485 1484 1484 1483 1482 1480 1478 1476 1473 1471 1468 1466 1463 1460 1456 1452 1448 1447 1443 1440 1439 1435 1432 1429 1425 1421 1418
1443 1447 1450 1453 1457 1460 1463 1465 1468 1470 1473 1475 1476 1478 1478 1479 1479 1479 1478 1477 1476 1474 1473 1471 1467 1465 1462 1460 1457 1453 1450 1446 1442 1440 1437 1431 1431 1427 1425 1422 1418 1415 1411
1440 1443 1447 1450 1453 1456 1458 1461 1463 1466 1468 1470 1471 1472 1473 1474 1474 1473 1472 1471 1470 1468 1467 1464 1462 1459 1456 1454 1451 1448 1444 1440 1436 1434 1431 1425 1422 1420 1417 1415 1412 1409 1406
1437 1440 1443 1446 1449 1452 1455 1457 1459 1461 1463 1465 1466 1467 1468 1468 1468 1467 1465 1464 1462 1462 1460 1458 1455 1453 1450 1448 1445 1442 1438 1434 1429 1426 1425 1421 1416 1412 1409 1407 1406 1403 1400
1434 1437 1440 1443 1446 1448 1451 1453 1455 1457 1459 1460 1461 1462 1462 1462 1462 1460 1459 1457 1456 1454 1453 1450 1448 1446 1443 1441 1439 1436 1432 1429 1424 1420 1418 1416 1411 1408 1402 1399 1399 1397 1394